Location: Perryvale
(54.4667°N, 113.3833°W)
Time: 21:42:21
(UTC+00:00)

Transit 2A - Pass Details

Date: 21 May 2024
Orbit: 592 x 959 km, 66.7° (Epoch: 19 June)

Event Time Altitude Azimuth Distance (km) Brightness Sun altitude
Exits shadow 07:06:24 19° 209° (SSW) 1,598 7.2 -15.1°
Maximum altitude 07:09:50 73° 127° (SE) 747 5.8 -15.1°
Drops below altitude 10° 07:15:06 10° 44° (NE) 2,325 9.1 -15.2°
Sets 07:17:39 0° 43° (NE) 3,319 10.0 -15.2°
